QPF
0.06 0.01 0.00 0.00 0.00 0.12 0.02 0.00 0.00 0.00 0.00 0.00 0.01 0.05 0.02 0.03 0.06 0.27 0.07 0.03 0.10 0.12 0.01 0.00 0.00 0.00 0.00 0.00 0.00 0.00 0.00 0.00 0.00 0.00 0.00 0.00 0.00 0.00 0.00 0.00 0.00 0.00 0.00 0.00
0.01 0.00 0.00 0.00 0.00 0.06 0.01 0.00 0.00 0.00 0.00 0.00 0.02 0.04 0.02 0.02 0.08 0.19 0.18 0.04 0.07 0.12 0.06 0.00 0.00 0.00 0.00 0.00 0.00 0.00 0.00 0.00 0.00 0.00 0.00 0.00 0.00 0.00 0.00 0.00 0.00 0.00 0.00 0.00
0.00 0.00 0.00 0.00 0.00 0.01 0.00 0.00 0.00 0.00 0.00 0.00 0.01 0.02 0.00 0.01 0.00 0.00 0.01 0.01 0.03 0.05 0.03 0.01 0.00 0.00 0.00 0.00 0.00 0.00 0.00 0.00 0.00 0.00 0.00 0.00 0.00 0.00 0.00 0.00 0.00 0.00 0.00 0.00
0.00 0.00 0.00 0.00 0.00 0.00 0.00 0.00 0.00 0.00 0.00 0.00 0.00 0.00 0.00 0.00 0.00 0.00 0.00 0.00 0.00 0.01 0.02 0.06 0.13 0.00 0.00 0.00 0.00 0.01 0.00 0.00 0.00 0.00 0.00 0.00 0.00 0.00 0.00 0.00 0.00 0.00 0.03 0.08
0.00 0.00 0.00 0.00 0.00 0.00 0.00 0.00 0.00 0.00 0.01 0.00 0.00 0.00 0.00 0.00 0.00 0.00 0.00 0.00 0.00 0.00 0.00 0.01 0.00 0.01 0.00 0.00 0.01 0.02 0.01 0.00 0.00 0.00 0.00 0.00 0.00 0.00 0.00 0.00 0.01 0.02 0.03 0.08
0.00 0.00 0.00 0.00 0.00 0.00 0.00 0.00 0.00 0.00 0.01 0.06 0.00 0.00 0.00 0.00 0.00 0.00 0.00 0.00 0.00 0.00 0.00 0.00 0.01 0.01 0.01 0.01 0.00 0.03 0.01 0.00 0.00 0.00 0.00 0.00 0.00 0.02 0.04 0.05 0.05 0.07 0.11 0.15
0.00 0.00 0.00 0.00 0.00 0.00 0.00 0.00 0.00 0.01 0.00 0.01 0.00 0.00 0.00 0.00 0.00 0.00 0.00 0.00 0.00 0.00 0.00 0.00 0.01 0.01 0.02 0.12 0.12 0.06 0.01 0.01 0.03 0.09 0.03 0.14 0.30 0.23 0.27 0.32 0.25 0.21 0.13 0.11
0.00 0.00 0.00 0.00 0.00 0.00 0.00 0.00 0.00 0.00 0.00 0.00 0.00 0.00 0.00 0.00 0.00 0.00 0.00 0.00 0.00 0.00 0.00 0.00 0.00 0.03 0.03 0.32 0.50 0.28 0.02 0.00 0.01 0.05 0.13 0.56 1.06 0.53 0.32 0.41 0.58 0.57 0.51 0.40
0.00 0.01 0.00 0.00 0.00 0.00 0.00 0.00 0.00 0.00 0.00 0.00 0.00 0.00 0.00 0.00 0.00 0.00 0.00 0.00 0.00 0.00 0.00 0.00 0.00 0.01 0.03 0.12 0.04 0.06 0.04 0.03 0.10 0.17 0.18 0.18 0.22 0.17 0.07 0.19 0.24 0.16 0.09 0.09
0.00 0.00 0.00 0.00 0.00 0.00 0.00 0.00 0.00 0.00 0.00 0.00 0.00 0.00 0.00 0.00 0.00 0.00 0.00 0.00 0.00 0.00 0.00 0.00 0.00 0.00 0.00 0.02 0.04 0.02 0.05 0.12 0.21 0.22 0.15 0.10 0.14 0.24 0.06 0.02 0.03 0.01 0.00 0.00
0.00 0.00 0.00 0.00 0.00 0.00 0.00 0.00 0.00 0.00 0.00 0.00 0.00 0.00 0.00 0.00 0.00 0.00 0.00 0.00 0.00 0.00 0.00 0.00 0.00 0.00 0.00 0.00 0.00 0.03 0.05 0.06 0.09 0.13 0.13 0.13 0.22 0.18 0.04 0.02 0.00 0.00 0.00 0.00
0.00 0.00 0.00 0.00 0.00 0.00 0.00 0.00 0.00 0.00 0.00 0.00 0.00 0.00 0.00 0.00 0.00 0.00 0.00 0.00 0.00 0.00 0.00 0.00 0.00 0.00 0.00 0.00 0.00 0.02 0.08 0.09 0.10 0.19 0.17 0.25 0.22 0.14 0.07 0.05 0.00 0.00 0.00 0.00
0.00 0.00 0.00 0.00 0.00 0.00 0.00 0.00 0.00 0.00 0.00 0.00 0.00 0.00 0.00 0.00 0.00 0.00 0.00 0.00 0.00 0.00 0.00 0.00 0.00 0.00 0.00 0.00 0.00 0.01 0.03 0.10 0.21 0.30 0.31 0.40 0.22 0.14 0.10 0.07 0.00 0.00 0.00 0.00
0.00 0.00 0.00 0.00 0.00 0.00 0.00 0.00 0.00 0.00 0.00 0.00 0.00 0.00 0.00 0.00 0.00 0.00 0.00 0.00 0.00 0.00 0.00 0.00 0.00 0.00 0.00 0.00 0.00 0.00 0.00 0.05 0.18 0.29 0.27 0.29 0.36 0.31 0.16 0.14 0.08 0.00 0.00 0.00
0.00 0.00 0.00 0.00 0.00 0.00 0.00 0.00 0.00 0.00 0.00 0.00 0.00 0.00 0.00 0.00 0.00 0.00 0.00 0.00 0.00 0.00 0.00 0.00 0.00 0.00 0.00 0.00 0.00 0.00 0.00 0.02 0.06 0.08 0.23 0.41 0.25 0.32 0.19 0.26 0.13 0.08 0.03 0.02
0.00 0.00 0.00 0.00 0.00 0.00 0.00 0.00 0.00 0.00 0.00 0.00 0.00 0.00 0.00 0.00 0.00 0.00 0.00 0.00 0.00 0.00 0.00 0.00 0.00 0.00 0.00 0.00 0.00 0.00 0.00 0.00 0.03 0.04 0.15 0.25 0.31 0.59 1.05 0.73 0.25 0.15 0.04 0.09
0.00 0.00 0.00 0.00 0.00 0.00 0.00 0.00 0.00 0.00 0.00 0.00 0.00 0.00 0.00 0.00 0.00 0.00 0.00 0.00 0.00 0.00 0.00 0.00 0.00 0.00 0.00 0.00 0.00 0.00 0.00 0.00 0.02 0.02 0.02 0.14 0.25 0.26 0.70 0.48 0.15 0.09 0.07 0.11
0.00 0.00 0.00 0.00 0.00 0.00 0.00 0.00 0.00 0.00 0.00 0.00 0.00 0.00 0.00 0.00 0.00 0.00 0.00 0.00 0.00 0.00 0.00 0.00 0.00 0.00 0.00 0.00 0.00 0.03 0.01 0.00 0.01 0.02 0.04 0.05 0.09 0.09 0.14 0.14 0.07 0.05 0.04 0.02
0.00 0.00 0.00 0.00 0.00 0.00 0.00 0.00 0.00 0.00 0.00 0.00 0.00 0.00 0.00 0.00 0.00 0.00 0.00 0.00 0.00 0.00 0.00 0.00 0.00 0.00 0.01 0.00 0.01 0.01 0.01 0.00 0.00 0.00 0.00 0.00 0.01 0.04 0.03 0.04 0.01 0.01 0.01 0.00
0.00 0.00 0.00 0.00 0.00 0.00 0.00 0.00 0.00 0.00 0.00 0.00 0.00 0.00 0.00 0.00 0.00 0.00 0.00 0.00 0.00 0.00 0.00 0.00 0.00 0.01 0.01 0.01 0.05 0.01 0.00 0.00 0.00 0.00 0.00 0.00 0.00 0.00 0.00 0.00 0.00 0.01 0.01 0.01
0.00 0.00 0.00 0.00 0.00 0.00 0.00 0.00 0.00 0.00 0.00 0.00 0.00 0.00 0.00 0.00 0.00 0.00 0.00 0.00 0.00 0.00 0.00 0.00 0.00 0.01 0.00 0.02 0.04 0.03 0.01 0.01 0.00 0.00 0.00 0.00 0.00 0.00 0.00 0.01 0.00 0.00 0.00 0.00
0.00 0.00 0.00 0.00 0.00 0.00 0.00 0.00 0.00 0.00 0.00 0.00 0.00 0.00 0.00 0.00 0.00 0.00 0.00 0.00 0.00 0.00 0.00 0.00 0.01 0.04 0.04 0.02 0.05 0.04 0.00 0.00 0.00 0.00 0.00 0.00 0.00 0.00 0.01 0.01 0.00 0.00 0.00 0.00
0.00 0.00 0.00 0.00 0.00 0.00 0.00 0.00 0.00 0.00 0.00 0.00 0.00 0.00 0.00 0.00 0.00 0.00 0.00 0.00 0.00 0.00 0.00 0.00 0.08 0.28 0.14 0.03 0.02 0.02 0.01 0.00 0.00 0.00 0.00 0.00 0.00 0.01 0.01 0.01 0.00 0.00 0.00 0.00
0.00 0.00 0.00 0.00 0.00 0.00 0.00 0.00 0.00 0.00 0.00 0.00 0.00 0.00 0.00 0.00 0.00 0.00 0.00 0.00 0.00 0.00 0.00 0.03 0.29 0.26 0.09 0.05 0.03 0.04 0.02 0.01 0.00 0.00 0.00 0.00 0.00 0.00 0.00 0.00 0.00 0.00 0.00 0.00
0.00 0.00 0.00 0.00 0.00 0.00 0.00 0.00 0.00 0.00 0.00 0.00 0.00 0.00 0.00 0.00 0.00 0.00 0.00 0.00 0.00 0.00 0.00 0.04 0.27 0.07 0.04 0.03 0.02 0.02 0.01 0.00 0.00 0.00 0.00 0.00 0.00 0.00 0.00 0.00 0.00 0.00 0.00 0.00
0.00 0.00 0.00 0.00 0.00 0.00 0.00 0.00 0.00 0.00 0.00 0.00 0.00 0.00 0.00 0.00 0.00 0.00 0.00 0.00 0.00 0.00 0.00 0.01 0.05 0.05 0.08 0.03 0.03 0.01 0.01 0.00 0.00 0.00 0.00 0.00 0.00 0.00 0.00 0.00 0.00 0.00 0.00 0.00
MSLP
1006.26 1006.89 1006.55 1007.29 1007.48 1007.72 1007.21 1006.99 1005.96 1005.09 1004.77 1005.79 1006.44 1007.29 1007.81 1009.02 1009.44 1008.98 1007.59 1008.18 1008.45 1007.89 1006.72 1006.79 1006.90 1007.02 1008.11 1008.88 1009.66 1010.32 1011.09 1011.50 1012.05 1012.77 1013.35 1013.70 1013.71 1013.53 1013.59 1013.55 1013.51 1013.74 1013.98 1014.33
1006.70 1006.30 1005.09 1005.49 1006.17 1006.53 1006.17 1005.28 1004.50 1003.38 1003.80 1005.19 1006.03 1007.05 1007.51 1008.45 1007.47 1008.19 1006.27 1007.57 1007.85 1007.64 1006.15 1006.42 1006.66 1007.16 1007.76 1008.43 1009.00 1009.54 1010.01 1010.90 1011.52 1011.97 1012.60 1013.26 1013.59 1013.62 1013.45 1013.30 1013.36 1013.43 1013.85 1014.13
1006.27 1004.70 1003.83 1004.10 1003.93 1004.53 1004.22 1003.51 1002.87 1002.49 1003.11 1004.03 1004.72 1006.11 1007.45 1007.53 1007.07 1007.46 1006.75 1006.76 1007.08 1006.17 1006.22 1006.50 1006.04 1006.67 1007.15 1007.96 1008.55 1008.83 1009.39 1010.28 1011.14 1011.82 1012.52 1012.94 1013.31 1013.35 1013.43 1013.41 1013.45 1013.39 1013.48 1013.55
1005.33 1003.52 1003.20 1002.63 1002.18 1002.23 1002.33 1001.86 1002.08 1002.26 1003.10 1003.84 1004.34 1006.46 1006.25 1005.65 1005.62 1005.79 1005.07 1005.36 1005.50 1005.76 1006.28 1006.24 1005.60 1005.80 1006.02 1007.48 1008.17 1008.84 1009.38 1009.78 1010.59 1011.35 1012.07 1012.50 1012.88 1013.24 1013.15 1013.15 1013.15 1013.43 1013.25 1013.72
1004.52 1003.13 1002.34 1001.60 1001.12 1001.19 1001.31 1001.12 1001.81 1002.18 1003.44 1004.76 1004.81 1005.60 1005.60 1005.42 1005.21 1004.86 1003.94 1004.05 1004.40 1005.15 1005.27 1005.72 1005.56 1005.57 1006.07 1006.98 1007.01 1008.04 1009.01 1009.78 1010.49 1011.19 1011.22 1012.07 1012.41 1012.53 1012.75 1013.02 1013.17 1013.35 1013.81 1013.85
1004.04 1002.77 1002.15 1001.11 1000.41 1000.28 1000.38 1000.87 1001.41 1002.99 1005.26 1006.17 1004.60 1004.59 1004.89 1004.79 1003.92 1003.29 1003.12 1003.20 1003.55 1003.76 1004.52 1005.09 1005.18 1005.82 1006.39 1007.00 1008.45 1009.74 1009.19 1009.56 1009.51 1010.58 1011.49 1012.05 1012.58 1012.92 1013.41 1014.01 1014.36 1014.67 1014.75 1015.17
1004.22 1002.62 1001.37 1000.75 1000.17 999.99 1000.35 1001.09 1002.42 1005.65 1005.57 1005.24 1003.30 1004.29 1003.44 1002.92 1002.44 1002.49 1002.68 1002.70 1003.09 1003.40 1003.86 1004.03 1005.21 1006.03 1008.47 1008.46 1009.20 1009.98 1010.33 1009.67 1009.70 1010.37 1011.55 1011.27 1012.61 1012.20 1013.06 1013.71 1014.59 1015.04 1015.32 1016.24
1004.72 1002.68 1000.97 1000.20 999.93 1000.14 1000.55 1001.33 1002.59 1003.93 1004.63 1003.86 1002.68 1003.24 1002.82 1002.14 1002.00 1002.01 1001.94 1002.13 1002.80 1003.47 1003.66 1004.37 1004.92 1006.47 1007.81 1008.27 1008.70 1008.76 1008.82 1009.58 1009.91 1010.75 1011.32 1011.58 1011.47 1011.94 1012.67 1013.37 1013.65 1014.96 1015.29 1015.66
1004.11 1002.53 1000.47 1000.06 999.56 999.79 1000.36 1001.07 1001.54 1002.90 1003.06 1003.60 1003.46 1003.16 1002.63 1002.36 1002.31 1002.04 1002.07 1002.36 1003.02 1003.61 1003.98 1004.58 1005.20 1006.34 1007.23 1008.12 1008.45 1008.39 1009.05 1009.03 1009.63 1010.29 1010.87 1011.28 1011.47 1011.90 1012.77 1012.99 1013.08 1013.15 1013.76 1014.83
1003.34 1002.86 1000.61 1000.10 999.47 999.42 1000.08 1000.63 1001.64 1002.90 1004.22 1004.41 1003.75 1003.53 1003.28 1002.70 1002.51 1002.24 1002.42 1002.89 1003.39 1003.82 1004.35 1004.88 1005.60 1006.19 1006.86 1007.16 1007.57 1008.14 1008.42 1008.55 1009.08 1009.61 1009.90 1010.46 1010.74 1011.62 1012.13 1012.28 1012.73 1013.61 1014.80 1015.07
1002.38 1002.33 1001.67 1000.51 999.96 999.80 1000.27 1000.88 1001.89 1003.37 1004.24 1004.93 1004.78 1003.92 1002.41 1002.23 1002.06 1002.40 1003.17 1003.44 1003.86 1004.45 1005.01 1005.50 1005.97 1006.44 1007.05 1007.38 1008.05 1008.43 1008.58 1008.82 1008.88 1009.27 1009.43 1010.11 1010.67 1011.38 1011.90 1012.13 1012.36 1013.24 1013.78 1014.87
1002.16 1002.60 1002.69 1001.48 1000.25 999.85 999.91 1000.49 1001.70 1003.80 1004.65 1004.49 1004.24 1003.50 1002.09 1002.06 1002.09 1002.64 1003.36 1003.89 1004.44 1004.91 1005.41 1005.88 1006.45 1006.85 1007.29 1007.81 1008.34 1008.78 1009.01 1009.25 1009.30 1009.16 1009.35 1009.74 1010.52 1011.34 1011.80 1011.98 1012.67 1012.74 1013.32 1013.98
1002.45 1002.99 1003.48 1002.59 1001.53 1000.53 1000.98 1001.03 1001.35 1002.33 1003.24 1004.36 1004.52 1003.50 1002.38 1002.10 1002.88 1003.28 1004.03 1004.74 1005.09 1005.44 1005.76 1006.18 1006.73 1007.23 1007.66 1008.18 1008.50 1008.82 1009.19 1009.49 1009.16 1008.98 1009.52 1009.68 1009.80 1009.72 1011.34 1012.13 1012.58 1012.54 1013.18 1013.64
1002.25 1003.29 1004.02 1004.01 1003.28 1002.55 1002.04 1001.56 1001.53 1002.25 1003.24 1003.79 1003.76 1003.22 1002.83 1003.29 1003.75 1004.11 1004.52 1004.74 1004.98 1005.34 1005.70 1006.24 1006.79 1007.13 1007.58 1008.08 1008.70 1009.18 1009.64 1009.72 1009.21 1008.59 1008.92 1009.11 1009.60 1009.38 1010.61 1011.48 1012.84 1012.87 1013.35 1013.37
1002.22 1003.39 1003.74 1003.81 1003.14 1002.62 1002.22 1001.88 1001.75 1002.04 1002.23 1002.78 1003.02 1003.21 1003.72 1003.76 1003.92 1004.10 1004.23 1004.38 1004.82 1005.33 1005.77 1006.13 1006.57 1007.07 1007.54 1008.12 1008.61 1008.97 1009.55 1009.77 1009.30 1008.80 1008.76 1008.89 1009.53 1010.16 1011.49 1011.84 1011.40 1012.35 1012.77 1013.21
1002.09 1002.97 1003.45 1003.67 1003.20 1002.80 1002.36 1001.86 1001.52 1001.43 1001.38 1001.45 1002.18 1003.47 1003.41 1003.52 1003.76 1004.04 1004.28 1004.40 1004.78 1005.20 1005.68 1005.92 1006.29 1006.86 1007.13 1007.69 1008.31 1008.93 1009.49 1009.65 1009.36 1008.91 1009.00 1009.46 1009.93 1010.49 1010.91 1010.87 1011.13 1012.30 1012.95 1013.11
1002.44 1003.10 1003.91 1004.03 1003.54 1003.16 1002.73 1001.87 1001.39 1001.02 1000.77 1000.86 1001.95 1002.82 1003.12 1003.62 1004.01 1004.24 1004.48 1004.65 1004.97 1005.20 1005.53 1005.71 1006.07 1006.39 1006.96 1007.54 1008.08 1008.89 1009.41 1009.85 1009.55 1009.35 1009.30 1009.59 1010.14 1010.38 1011.02 1010.10 1011.70 1012.50 1012.76 1012.89
1002.34 1003.16 1003.72 1004.22 1003.90 1003.32 1002.23 1000.87 1000.49 1000.45 1000.27 1000.59 1001.55 1002.38 1002.90 1003.51 1003.89 1004.07 1004.36 1004.57 1004.69 1004.83 1004.95 1005.27 1005.53 1005.99 1006.54 1007.11 1007.94 1008.56 1009.26 1009.61 1009.94 1009.62 1009.63 1009.71 1010.31 1010.73 1011.02 1011.36 1011.88 1012.32 1012.48 1012.45
1001.58 1002.47 1003.55 1003.95 1003.83 1002.83 1001.75 1000.73 1000.57 1000.48 1001.22 1001.34 1001.90 1002.49 1002.99 1003.42 1003.68 1004.32 1004.16 1004.23 1004.31 1004.32 1004.46 1004.55 1004.93 1005.56 1006.26 1006.83 1007.58 1008.28 1008.96 1009.27 1009.63 1009.87 1009.67 1009.79 1010.02 1010.71 1011.03 1011.29 1011.42 1011.72 1011.91 1012.17
1001.25 1001.74 1003.12 1003.55 1003.61 1002.75 1001.61 1000.48 1000.15 1000.27 1001.34 1001.72 1002.01 1002.62 1003.06 1003.40 1004.14 1004.35 1004.06 1003.91 1003.76 1003.74 1003.98 1004.37 1004.86 1005.30 1005.91 1006.70 1007.30 1008.00 1008.62 1009.04 1009.32 1009.63 1009.72 1009.69 1009.96 1010.09 1010.55 1011.06 1011.21 1011.24 1011.46 1011.68
1002.47 1002.77 1003.02 1003.09 1002.81 1001.59 1000.30 1000.15 1000.07 1000.95 1002.27 1001.84 1002.22 1002.69 1003.08 1003.59 1003.74 1003.57 1003.42 1003.39 1003.47 1003.46 1003.69 1004.04 1004.61 1005.24 1006.28 1006.61 1006.95 1007.52 1008.11 1008.67 1008.80 1009.18 1009.63 1009.92 1010.25 1010.56 1010.56 1010.67 1010.82 1011.06 1011.51 1011.70
1003.05 1003.04 1003.08 1002.65 1002.29 1001.39 1000.30 1000.30 1000.83 1001.45 1001.50 1001.69 1001.98 1002.24 1002.62 1002.87 1002.92 1002.87 1003.01 1003.24 1003.34 1003.35 1003.53 1004.07 1004.74 1005.92 1005.55 1006.69 1006.43 1007.12 1007.53 1007.92 1008.24 1008.75 1009.46 1009.76 1010.02 1010.19 1010.41 1010.77 1011.09 1011.25 1011.43 1011.92
1003.20 1002.97 1002.92 1002.63 1001.91 1000.94 1000.09 1000.29 1000.32 1000.59 1001.10 1001.34 1001.62 1001.84 1002.09 1002.34 1002.44 1002.54 1002.90 1003.02 1003.10 1003.37 1003.57 1004.09 1005.22 1006.15 1006.40 1006.08 1005.87 1006.56 1007.10 1007.52 1007.93 1008.43 1009.01 1009.34 1009.57 1009.79 1009.89 1010.33 1010.82 1011.11 1011.37 1011.76
1003.15 1002.48 1002.47 1002.33 1001.57 1001.01 1000.69 1000.49 1000.59 1000.95 1001.05 1001.20 1001.38 1001.59 1001.84 1002.15 1002.14 1002.20 1002.40 1002.72 1003.05 1003.28 1003.72 1004.31 1004.69 1005.10 1005.79 1005.49 1005.89 1006.15 1006.61 1007.29 1007.70 1008.15 1008.69 1009.05 1009.25 1009.60 1009.88 1009.96 1010.30 1010.67 1010.99 1011.36
1003.95 1003.45 1002.84 1002.17 1001.54 1001.11 1000.76 1000.76 1000.93 1001.06 1001.12 1001.24 1001.38 1001.62 1001.83 1001.91 1001.95 1001.94 1002.19 1002.44 1002.91 1003.05 1003.65 1004.00 1004.30 1004.65 1005.11 1005.06 1005.47 1005.72 1005.97 1006.61 1007.22 1007.84 1008.26 1008.63 1008.82 1009.23 1009.58 1009.68 1009.76 1009.99 1010.18 1010.29
1003.60 1003.11 1002.92 1002.27 1001.52 1001.03 1000.84 1000.51 1000.42 1000.64 1000.89 1001.06 1001.25 1001.42 1001.50 1001.60 1001.77 1001.84 1001.98 1002.15 1002.40 1002.72 1003.09 1003.58 1003.75 1004.05 1004.34 1004.60 1004.82 1005.10 1005.43 1005.88 1006.54 1007.26 1007.64 1008.03 1008.42 1008.65 1008.91 1009.15 1009.35 1009.15 1009.10 1009.30
Thickness
5832 5811 5799 5815 5819 5811 5816 5814 5820 5832 5841 5831 5819 5808 5817 5816 5817 5816 5830 5827 5826 5829 5855 5856 5857 5859 5849 5844 5837 5831 5824 5820 5817 5809 5802 5800 5799 5803 5804 5804 5806 5802 5802 5799
5823 5807 5842 5849 5833 5817 5817 5820 5827 5852 5853 5836 5824 5809 5823 5819 5824 5823 5841 5828 5831 5836 5851 5858 5856 5854 5850 5842 5838 5836 5833 5825 5819 5815 5809 5802 5797 5797 5800 5800 5802 5802 5798 5795
5810 5839 5862 5850 5848 5830 5832 5840 5841 5846 5860 5853 5846 5817 5809 5824 5830 5827 5832 5836 5834 5842 5847 5849 5853 5852 5854 5847 5838 5840 5835 5828 5821 5814 5807 5800 5796 5794 5791 5791 5793 5796 5796 5794
5826 5862 5856 5855 5856 5860 5833 5868 5863 5857 5839 5812 5849 5785 5816 5834 5836 5841 5848 5841 5839 5837 5840 5843 5851 5849 5855 5847 5843 5835 5830 5825 5820 5813 5803 5795 5789 5782 5783 5784 5788 5786 5788 5783
5830 5853 5854 5852 5861 5872 5850 5878 5863 5862 5832 5819 5825 5795 5819 5835 5831 5837 5857 5864 5862 5853 5849 5843 5850 5854 5853 5853 5853 5840 5828 5818 5813 5810 5806 5793 5786 5783 5785 5782 5782 5781 5775 5771
5845 5872 5864 5860 5882 5881 5888 5869 5864 5846 5808 5769 5818 5814 5809 5815 5837 5854 5864 5870 5870 5872 5858 5850 5851 5848 5841 5842 5835 5817 5815 5815 5814 5806 5793 5785 5779 5776 5770 5763 5758 5760 5757 5750
5829 5850 5873 5879 5864 5881 5869 5842 5803 5759 5778 5769 5842 5815 5821 5849 5860 5864 5864 5869 5871 5874 5866 5858 5848 5842 5813 5818 5814 5811 5808 5808 5805 5798 5784 5787 5772 5771 5762 5754 5746 5743 5741 5728
5798 5806 5861 5882 5871 5858 5854 5846 5793 5779 5777 5806 5855 5807 5823 5861 5866 5869 5868 5867 5866 5861 5863 5855 5849 5828 5814 5813 5813 5819 5817 5804 5802 5789 5778 5776 5778 5772 5764 5749 5746 5733 5729 5725
5815 5824 5879 5881 5891 5882 5856 5827 5862 5827 5839 5814 5830 5836 5854 5858 5857 5863 5862 5862 5856 5858 5857 5853 5847 5831 5821 5811 5807 5810 5801 5802 5798 5786 5777 5770 5770 5770 5758 5754 5748 5744 5739 5727
5844 5808 5870 5881 5893 5888 5868 5876 5818 5814 5789 5788 5812 5820 5806 5838 5841 5855 5855 5852 5855 5857 5853 5847 5840 5832 5823 5818 5811 5802 5799 5796 5787 5781 5776 5771 5770 5764 5757 5754 5746 5734 5721 5717
5858 5839 5835 5868 5866 5853 5854 5837 5839 5830 5815 5784 5775 5797 5847 5847 5853 5851 5841 5847 5847 5842 5839 5836 5831 5826 5817 5805 5796 5788 5783 5778 5775 5772 5771 5764 5761 5754 5751 5747 5745 5738 5734 5723
5863 5839 5808 5835 5876 5892 5881 5861 5846 5787 5796 5806 5793 5795 5870 5859 5859 5846 5838 5841 5840 5838 5833 5828 5821 5812 5804 5798 5788 5776 5770 5765 5766 5763 5758 5757 5750 5743 5739 5742 5735 5736 5732 5725
5855 5817 5785 5805 5839 5864 5847 5859 5859 5842 5826 5800 5779 5791 5866 5864 5844 5841 5829 5829 5829 5829 5826 5821 5810 5799 5790 5781 5773 5763 5753 5751 5752 5752 5748 5746 5740 5733 5733 5729 5729 5730 5726 5720
5858 5828 5802 5773 5802 5828 5822 5837 5844 5832 5794 5797 5802 5816 5838 5830 5827 5826 5823 5825 5822 5820 5818 5813 5801 5792 5782 5772 5759 5747 5736 5733 5739 5746 5747 5746 5740 5739 5729 5724 5712 5715 5715 5717
5849 5811 5823 5822 5834 5837 5832 5833 5838 5823 5822 5805 5814 5818 5809 5820 5823 5827 5830 5828 5820 5807 5804 5800 5790 5782 5771 5760 5747 5737 5727 5724 5730 5736 5739 5741 5731 5724 5713 5708 5712 5714 5712 5709
5853 5810 5826 5813 5831 5831 5820 5834 5837 5836 5837 5831 5827 5799 5822 5826 5827 5822 5821 5819 5811 5803 5797 5792 5785 5772 5762 5752 5740 5727 5719 5719 5723 5728 5728 5724 5719 5712 5705 5704 5695 5703 5700 5701
5830 5816 5803 5785 5817 5811 5791 5814 5824 5829 5841 5833 5803 5817 5823 5815 5813 5811 5808 5806 5800 5795 5790 5784 5778 5769 5757 5748 5737 5723 5716 5712 5715 5718 5719 5715 5709 5707 5694 5682 5691 5692 5693 5695
5824 5813 5803 5779 5798 5757 5810 5843 5841 5831 5840 5833 5822 5818 5818 5813 5814 5810 5807 5798 5794 5792 5789 5780 5773 5763 5756 5748 5733 5723 5715 5710 5707 5710 5710 5710 5701 5696 5694 5690 5688 5687 5689 5691
5848 5820 5792 5773 5769 5793 5815 5830 5822 5815 5808 5821 5810 5812 5809 5809 5807 5793 5802 5801 5793 5791 5786 5779 5773 5761 5752 5744 5733 5722 5713 5710 5704 5702 5705 5704 5701 5693 5688 5685 5686 5686 5686 5684
5845 5831 5796 5788 5765 5752 5798 5832 5840 5829 5774 5813 5812 5804 5800 5798 5764 5769 5793 5793 5786 5786 5781 5770 5765 5756 5748 5738 5729 5720 5712 5706 5703 5698 5698 5698 5696 5694 5689 5682 5678 5681 5682 5681
5799 5800 5783 5775 5765 5785 5823 5826 5832 5772 5763 5805 5800 5796 5792 5777 5774 5784 5792 5787 5784 5782 5778 5770 5760 5748 5735 5733 5726 5717 5711 5704 5703 5700 5695 5691 5687 5684 5685 5684 5683 5680 5676 5677
5787 5778 5772 5779 5769 5757 5823 5814 5783 5783 5798 5798 5794 5793 5788 5787 5785 5784 5782 5778 5774 5773 5772 5762 5750 5732 5729 5722 5727 5713 5708 5706 5704 5699 5691 5689 5688 5686 5683 5678 5675 5675 5675 5672
5774 5790 5771 5785 5773 5805 5819 5805 5809 5805 5792 5791 5787 5788 5785 5778 5776 5777 5768 5771 5767 5763 5760 5755 5739 5727 5720 5720 5727 5712 5707 5705 5700 5696 5691 5688 5686 5684 5683 5679 5674 5672 5673 5669
5789 5802 5779 5777 5793 5799 5802 5804 5797 5789 5784 5784 5783 5779 5777 5768 5768 5766 5764 5762 5759 5756 5749 5739 5734 5729 5720 5724 5717 5712 5708 5703 5698 5693 5687 5685 5684 5680 5679 5678 5675 5672 5670 5668
5772 5775 5769 5768 5784 5785 5785 5782 5780 5778 5778 5777 5777 5771 5765 5760 5758 5759 5753 5752 5750 5748 5739 5734 5728 5720 5715 5719 5713 5714 5711 5704 5697 5690 5686 5682 5682 5678 5675 5676 5675 5673 5674 5674
5771 5760 5747 5744 5765 5762 5765 5778 5780 5771 5765 5763 5760 5755 5757 5755 5748 5750 5744 5745 5743 5739 5735 5728 5725 5717 5713 5713 5713 5712 5710 5706 5698 5689 5686 5683 5679 5678 5676 5675 5672 5676 5677 5676